"Pseudo-MPEC" for C03KAF1

Created 2019 Feb 19 1:18:10 UT using Find_Orb

Click here for an explanation of pseudo-MPECs

 
 Astrometry: 
     C03KAF1  C2019 02 12.32989 11 45 40.45 -12 44 37.7    ~2CAI 20.3 GVNEOCP703
     C03KAF1  C2019 02 12.33521 11 45 41.45 -12 44 40.6    ~2CAI 20.6 GVNEOCP703
     C03KAF1  C2019 02 12.34054 11 45 42.56 -12 44 42.0    ~2CAI 20.4 GVNEOCP703
     C03KAF1  C2019 02 12.34586 11 45 43.57 -12 44 44.3    ~2CAI 20.6 GVNEOCP703
     C03KAF1  C2019 02 12.40161 11 45 53.88 -12 45 05.8    ~2CB3 20.5 GVNEOCPI52
     C03KAF1  C2019 02 12.40286 11 45 54.13 -12 45 06.0    ~2CB3       VNEOCPI52
     C03KAF1  C2019 02 12.40411 11 45 54.38 -12 45 06.4    ~2CB3       VNEOCPI52
     C03KAF1  C2019 02 12.40536 11 45 54.59 -12 45 07.4    ~2CB3       VNEOCPI52
     C03KAF1  C2019 02 12.48410 11 46 09.26 -12 45 36.7    ~2CC3 19.9 GVNEOCPI52
     C03KAF1  C2019 02 12.48487 11 46 09.40 -12 45 37.2    ~2CC3 19.8 GVNEOCPI52
     C03KAF1  C2019 02 12.48750 11 46 09.92 -12 45 37.5    ~2CC3 20.1 GVNEOCPI52
     C03KAF1  C2019 02 12.48827 11 46 10.02 -12 45 38.5    ~2CC3 20.1 GVNEOCPI52
     C03KAF1 KC2019 02 1243[VZ:$1o2U-D`PK2$Pifwx6RB@ruH`v5ARpAstrometry60'+C7474
     C03KAF1 KC2019 02 12Fw,3O^#[wSV9R55*_K;AV82IYckL8$2%Sp\hPZA,448##CcN8*_P474
     C03KAF1 KC2019 02 12+kH=JUg-CqAXU,JX0GA8_%Qiu9-Tmw_8yVcTwpQI7o[l!+$eSF$8474
     C03KAF1 KC2019 02 12U@oT?%qM#g$XMaJ(l)HEOL8.5N/^=?T74c09Z]pH;vZB]_J*hr)=474
     C03KAF1 KC2019 02 13L@T'WBjg[J$,L?(-a@lfJZ8SQkOV%xE+?y2PuV1'B=-y:#?`Cit\L01
     C03KAF1 KC2019 02 13J'7C[redacted;$tVZlg;4^IP^=.#XQGRgDX:p:tulVplgP^.FLmL01
     C03KAF1 KC2019 02 13D!w*y/xo#yjxkb/;.vEl*kw`u(M`7qWlHalW9aZl+37GBRUrx!i@L01
     C03KAF1 KC2019 02 13M\3@+NfgMQ43dKZ`$jXk4EeBO[Y:k`wXZ(,FxMNOaam3u-k?eG1TL01
     C03KAF1 KC2019 02 136VJ34^ot+H3Q=NE*IRuirBTi*Vep@UDio(8Cg`y8=N7!Riwu;sOu734
     C03KAF1 KC2019 02 13]p3xVf%V@qMo.N!Q%vmy%h;ltwPFZn:[oXk57!U.N$pW%H\!o5Z7734
     C03KAF1 KC2019 02 13bKO`D4Q3clickShh[G_8L-u(V0bm;5%Cl8+qgaWePcxV@xwg]6:D734
     C03KAF1 |C2019 02 147NM4te@F,[#q1foA\6tZW1JqV5m0d,XU4`j.K0TXE2)1RyRiiLIF807
     C03KAF1 |C2019 02 14XL%k(9QrV\0h[BrlOKEnKAncH@10`D6e5rY@D[PZk?hk.qp-i3d2807
     C03KAF1 |C2019 02 14,22A_k;]EL4n/BeY*Tw=r0m*=Uda8v\QBQ5w-N;AB%ca^Go\gF2q807
     C03KAF1 IC2019 02 16W?uSq00H=^c^[hv'#l=B3cT_Zu6;XLRV#f6K^N4vcWR`^V,Uxs,X204
     C03KAF1 HC2019 02 16sF+SILCt0Lb`5s9O1I[fG/^-gjh\7\f1\qd+CbY-4herevHIoaS[204
     C03KAF1 KC2019 02 16reP`!hwgSY_=?\YxDmtlqD-J%q8\6@TUqnV9EDl%]cx?CP=6K/-I204
     C03KAF1 KC2019 02 16#:)1oK9Ko+*Rn\Lk3i(^Sia#UiE%QsZ4h4nmMsc2Xo[:uLMe.erRL01
     C03KAF1 KC2019 02 16!w_5e'J3tQ,]dd-yY(K,G4L?fRoMHC9#@R8_YbrSnYk2wR1VZ6=\L01
     C03KAF1 KC2019 02 16=CnVFh._(A!Tuog@'er8u,)lhS[DDWH;Tpr!9Z:uVoOQeqqF6C91L01
     C03KAF1 KC2019 02 16pMJriYi;Z\ONW+C`6bWacm*Y4x7,M*U/txh=9yB*0N'forKdj\-*X31
     C03KAF1 KC2019 02 16*h8`wG[uiRhk,1O_WA#!$)..nqKlXYwq]xsrsbKb.WM]Mf:oi;MMX31
     C03KAF1 KC2019 02 16,?a6_cN2LSN40!q8gfa1'4^+I3Y/f(?'ruf\IRb#'vg(mYpYt';.X31
     C03KAF1 KC2019 02 17,yKuFW$y?[o.b6Xv0_7?X7P0JK=J'B*wQ3UP,6V!l(w:96Q2oBbYX31
     C03KAF1 KC2019 02 17!KJR9%\Eo8Ga0eD-Y]xdom,1RSWI*$M.0fglf\^gwn,AVe$TOM!5X31
     C03KAF1 KC2019 02 17nBHuPX=J(S.IQWUL3@+AIXB8q#Ycexplanation$18L-i_I`/+nrX31

Station data:
(204) Schiaparelli Observatory  (N45.867933 E8.770800)  Italy.  Observer L.
   Buzzi. 0.60-m f/4.64 Newtonian + CCD.
(474) Mount John Observatory, Lake Tekapo  (S43.987388 E170.464960)  New
   Zealand.  Observers A. C. Gilmore, P. M. Kilmartin. Measurer P. M.
   Kilmartin. 1.0-m f/7.7 reflector + CCD.
(703) Catalina Sky Survey  (N32.417006 W110.732640)  US/Arizona.  Observers
   B. M. Africano, E. J. Christensen, G. A. Farneth, D. C. Fuls, A. R. Gibbs,
   A. D. Grauer, H. Groeller, J. A. Johnson, R. A. Kowalski, S. M. Larson, G.
   J. Leonard, R. L. Seaman, F. C. Shelly. 0.68 m Schmidt + 10K CCD.
(734) Farpoint Observatory, Eskridge  (N38.890107 W96.001400)  US/Kansas.
   Observer G. Hug. 0.69-m reflector + CCD.
(807) Cerro Tololo Observatory, La Serena  (S30.169136 W70.805900)  Chile.
   1.5-m Ritchey-Chrétien.
(I52) Steward Observatory, Mt. Lemmon Station  (N32.442547 W110.788920)
   US/Arizona.  Observers B. M. Africano, E. J. Christensen, G. A. Farneth,
   D. C. Fuls, A. R. Gibbs, A. D. Grauer, H. Groeller, J. A. Johnson, R. A.
   Kowalski, S. M. Larson, G. J. Leonard, R. L. Seaman, F. C. Shelly. 1.0-m
   reflector + CCD.
(L01) Višnjan Observatory, Tičan  (N45.290900 E13.749300)  Croatia.
   Observers K. Korlević, E. Pettarin. Measurer E. Pettarin. 1.0-m f/2.9
   reflector + CCD.
(X31) Galileo Galilei Observatory, Oro Verde  (S31.823022 W60.520660)
   Argentina.

Orbital elements:  C03KAF1
   Perihelion 2019 Mar 6.728102 +/- 0.0535 TT = 17:28:28 (JD 2458549.228102)
Epoch 2019 Feb 17.0 TT = JDT 2458531.5   Earth MOID: 0.2148   Ju: 0.7424
M 356.11976595 +/- 0.054            (J2000 ecliptic)          AutoNEOCP
n   0.21887475 +/- 0.00284          Peri.  351.36338 +/- 0.06
a   2.72691917 +/- 0.0236           Node   180.67297 +/- 0.038
e   0.5568261 +/- 0.00346           Incl.    6.65304 +/- 0.021
P   4.50                   H 21.0   G  0.15   U  8.8  
q 1.20849916 +/- 0.00105    Q 4.24533918 +/- 0.0468
From 38 observations 2019 Feb. 12-17; mean residual 0".44
Residuals in arcseconds: 
190212 703  1.6-  .26-    190212 474  .72+  .49+    190216 204  .05-  .16-    
190212 703  1.5-  1.0-    190212 474  .40+  .31+    190216 204  .07+  .41-    
190212 703  .18+  .27-    190212 474  .67+  .13+    190216 204  .26+  .10+    
190212 703  .46+  .44-    190213 L01  .12+  .08+    190216 L01  .25+  .41+    
190212 I52  .26-  .00     190213 L01  .23+  .25+    190216 L01  .40+  .08+    
190212 I52  .00   .28+    190213 L01  .08+  .20+    190216 L01  .24+  .36-    
190212 I52  .26+  .36+    190213 L01  .31+  .26+    190216 X31  .87-  .34-    
190212 I52  .06-  .15-    190213 734  .28+  .29-    190216 X31  .52-  .27-    
190212 I52  .17+  .12+    190213 734  .01+  .14+    190216 X31  .39-  .85-    
190212 I52  .11+  .10-    190213 734  .27-  .05-    190217 X31  .14+  1.1+    
190212 I52  .52+  .56+    190214 807  .35-  .14-    190217 X31  .02-  .20-    
190212 I52  .12-  .16-    190214 807  .15-  .01+    190217 X31  .21+  .39+    
190212 474  .30+  .27+    190214 807  .16-  .32+    

Ephemerides (geocentric):
Date (UTC) HH   RA              Dec         delta   r     elong  mag " sig PA
---- -- -- --  -------------   -----------  ------ ------ -----  --- ---- ---
2019 02 19 01  12 08 11.089   -13 11 28.62  .28341 1.2223 141.2 20.1 .469   5
2019 02 19 02  12 08 19.672   -13 11 32.30  .28328 1.2222 141.2 20.1 .479   5
2019 02 19 03  12 08 28.257   -13 11 35.90  .28315 1.2221 141.2 20.1 .489   5
2019 02 19 04  12 08 36.844   -13 11 39.41  .28302 1.2220 141.2 20.1 .500   6
2019 02 19 05  12 08 45.432   -13 11 42.84  .28290 1.2220 141.3 20.1 .510   6
2019 02 19 06  12 08 54.023   -13 11 46.19  .28277 1.2219 141.3 20.0 .521   6
2019 02 19 07  12 09 02.615   -13 11 49.46  .28264 1.2218 141.3 20.0 .531   6
2019 02 19 08  12 09 11.209   -13 11 52.64  .28251 1.2218 141.3 20.0 .542   6
2019 02 19 09  12 09 19.805   -13 11 55.73  .28239 1.2217 141.3 20.0 .553   6
2019 02 19 10  12 09 28.403   -13 11 58.74  .28226 1.2216 141.3 20.0 .564   6
2019 02 19 11  12 09 37.003   -13 12 01.67  .28213 1.2215 141.3 20.0 .575   6
2019 02 19 12  12 09 45.604   -13 12 04.52  .28201 1.2215 141.3 20.0 .586   6
2019 02 19 13  12 09 54.207   -13 12 07.28  .28188 1.2214 141.4 20.0 .598   6
2019 02 19 14  12 10 02.812   -13 12 09.95  .28175 1.2213 141.4 20.0 .609   6
2019 02 19 15  12 10 11.419   -13 12 12.55  .28163 1.2213 141.4 20.0 .621   6
2019 02 19 16  12 10 20.027   -13 12 15.05  .28150 1.2212 141.4 20.0 .632   7
2019 02 19 17  12 10 28.637   -13 12 17.48  .28138 1.2211 141.4 20.0 .644   7
2019 02 19 18  12 10 37.249   -13 12 19.82  .28125 1.2211 141.4 20.0 .656   7
2019 02 19 19  12 10 45.863   -13 12 22.07  .28113 1.2210 141.4 20.0 .668   7
2019 02 19 20  12 10 54.478   -13 12 24.24  .28100 1.2209 141.4 20.0 .680   7
2019 02 19 21  12 11 03.095   -13 12 26.33  .28088 1.2208 141.5 20.0 .692   7
2019 02 19 22  12 11 11.713   -13 12 28.33  .28075 1.2208 141.5 20.0 .704   7
2019 02 19 23  12 11 20.333   -13 12 30.24  .28063 1.2207 141.5 20.0 .717   7
2019 02 20 00  12 11 28.955   -13 12 32.07  .28051 1.2206 141.5 20.0 .729   7
2019 02 20 01  12 11 37.578   -13 12 33.82  .28038 1.2206 141.5 20.0 .742   7
2019 02 20 02  12 11 46.203   -13 12 35.48  .28026 1.2205 141.5 20.0 .754   7
2019 02 20 03  12 11 54.830   -13 12 37.06  .28014 1.2204 141.5 20.0 .767   7
2019 02 20 04  12 12 03.458   -13 12 38.55  .28001 1.2204 141.5 20.0 .780   7
2019 02 20 05  12 12 12.088   -13 12 39.95  .27989 1.2203 141.6 20.0 .793   7
2019 02 20 06  12 12 20.719   -13 12 41.28  .27977 1.2202 141.6 20.0 .806   7
2019 02 20 07  12 12 29.352   -13 12 42.51  .27965 1.2202 141.6 20.0 .820   7
2019 02 20 08  12 12 37.986   -13 12 43.66  .27952 1.2201 141.6 20.0 .833   8
2019 02 20 09  12 12 46.622   -13 12 44.73  .27940 1.2200 141.6 20.0 .846   8
2019 02 20 10  12 12 55.259   -13 12 45.71  .27928 1.2200 141.6 20.0 .860   8
2019 02 20 11  12 13 03.898   -13 12 46.60  .27916 1.2199 141.6 20.0 .874   8
2019 02 20 12  12 13 12.538   -13 12 47.41  .27904 1.2198 141.6 20.0 .887   8
2019 02 20 13  12 13 21.180   -13 12 48.13  .27892 1.2198 141.6 20.0 .901   8
2019 02 20 14  12 13 29.823   -13 12 48.77  .27880 1.2197 141.7 20.0 .915   8
2019 02 20 15  12 13 38.468   -13 12 49.32  .27867 1.2196 141.7 20.0 .929   8
2019 02 20 16  12 13 47.114   -13 12 49.79  .27855 1.2196 141.7 20.0 .944   8
2019 02 20 17  12 13 55.762   -13 12 50.17  .27843 1.2195 141.7 20.0 .958   8
2019 02 20 18  12 14 04.410   -13 12 50.46  .27831 1.2194 141.7 20.0 .972   8
2019 02 20 19  12 14 13.061   -13 12 50.67  .27819 1.2194 141.7 20.0 .987   8
2019 02 20 20  12 14 21.712   -13 12 50.79  .27807 1.2193 141.7 20.0 1.00   8
2019 02 20 21  12 14 30.365   -13 12 50.83  .27796 1.2192 141.7 20.0 1.02   8
2019 02 20 22  12 14 39.020   -13 12 50.78  .27784 1.2192 141.8 20.0 1.03   8
2019 02 20 23  12 14 47.676   -13 12 50.64  .27772 1.2191 141.8 20.0 1.05   8
2019 02 21 00  12 14 56.333   -13 12 50.42  .27760 1.2191 141.8 20.0 1.06   8